Clarksburg, WV

6:56 AM EST on November 20, 2019 (GMT -0500)
Benedum

Weather History for KCKB - September, 2019

Change the Weather History Date:

Tuesday, September 24, 2019

  Actual Average Record
Temperature  
Mean Temperature 66 °F -  
Max Temperature 78 °F 70 °F 93 °F (1930)
Min Temperature 53 °F 48 °F 32 °F (1963)
Cooling Degree Days 1    
Month to date cooling degree days 197  
Year to date cooling degree days 1234  
Growing Degree Days 16 (Base 50)    
Moisture  
Dew Point 51 °F    
Average Humidity 63    
Maximum Humidity 93    
Minimum Humidity 32    
Precipitation  
Precipitation 0.00 in - - ()
Month to date precipitation 0.06  
Year to date precipitation 31.57  
Sea Level Pressure  
Sea Level Pressure 29.96 in    
Wind  
Wind Speed 3 mph (NW)    
Max Wind Speed 13 mph    
Max Gust Speed 18 mph    
Visibility 10 miles    
Events      
Averages and records for this station are not official NWS values.
T = Trace of Precipitation, MM = Missing Value Source: NWS Daily Summary

Daily Weather History Graph

Daily Weather History Graph

Search for Another Location

Airport or City:

Astronomy

Sep. 24, 2019 Rise Set
Actual Time 7:10 AM EDT 7:15 PM EDT
Civil Twilight 6:43 AM EDT 7:41 PM EDT
Nautical Twilight 6:12 AM EDT 8:12 PM EDT
Astronomical Twilight 5:40 AM EDT 8:44 PM EDT
Moon 1:55 AM EDT (9/24) 4:57 PM EDT (9/24)
Length of Visible Light 12h 58m
Length of Day
12h 04m
Waning Crescent, 23% of the Moon is Illuminated
Sep 24
Waning Crescent
Sep 28
New
Oct 5
First Quarter
Oct 13
Full
Oct 21
Last Quarter

Hourly Weather History & Observations

Time (EDT) Temp. Dew Point Humidity Pressure Visibility Wind Dir Wind Speed Gust Speed Precip Events Conditions
12:53 AM 66.9 °F 63.0 °F 87% 29.94 in 9.0 mi West 3.5 mph - N/A   Mostly Cloudy
1:53 AM 66.0 °F 57.0 °F 73% 29.94 in 10.0 mi NNW 8.1 mph 17.3 mph N/A   Clear
2:53 AM 63.0 °F 54.0 °F 72% 29.94 in 10.0 mi NW 4.6 mph - N/A   Clear
3:53 AM 62.1 °F 53.1 °F 72% 29.95 in 10.0 mi WNW 4.6 mph - N/A   Clear
4:53 AM 59.0 °F 52.0 °F 78% 29.96 in 10.0 mi WNW 4.6 mph - N/A   Clear
5:53 AM 55.9 °F 50.0 °F 80% 29.97 in 10.0 mi Calm Calm - N/A   Clear
6:53 AM 54.0 °F 50.0 °F 86% 29.98 in 8.0 mi Calm Calm - N/A   Clear
7:53 AM 54.0 °F 51.1 °F 90% 29.99 in 9.0 mi Calm Calm - N/A   Clear
8:53 AM 62.1 °F 52.0 °F 70% 30.00 in 10.0 mi Calm Calm - N/A   Clear
9:53 AM 64.9 °F 53.1 °F 65% 30.00 in 10.0 mi Calm Calm - N/A   Clear
10:53 AM 69.1 °F 53.1 °F 57% 30.00 in 10.0 mi North 5.8 mph - N/A   Scattered Clouds
11:53 AM 70.0 °F 51.1 °F 51% 29.99 in 10.0 mi West 8.1 mph - N/A   Mostly Cloudy
12:53 PM 71.1 °F 48.9 °F 45% 29.98 in 10.0 mi NW 6.9 mph - N/A   Mostly Cloudy
1:53 PM 72.0 °F 48.9 °F 44% 29.96 in 10.0 mi Calm Calm - N/A   Overcast
2:53 PM 77.0 °F 48.0 °F 36% 29.94 in 10.0 mi NW 9.2 mph - N/A   Mostly Cloudy
3:53 PM 78.1 °F 46.0 °F 32% 29.93 in 10.0 mi NW 6.9 mph - N/A   Overcast
4:53 PM 75.0 °F 46.9 °F 37% 29.93 in 10.0 mi NW 8.1 mph - N/A   Mostly Cloudy
5:53 PM 73.0 °F 48.9 °F 42% 29.92 in 10.0 mi North 4.6 mph - N/A   Mostly Cloudy
6:53 PM 72.0 °F 48.0 °F 43% 29.94 in 10.0 mi NNW 4.6 mph - N/A   Mostly Cloudy
7:53 PM 66.0 °F 48.9 °F 54% 29.94 in 10.0 mi Calm Calm - N/A   Clear
8:53 PM 62.1 °F 50.0 °F 65% 29.94 in 10.0 mi Calm Calm - N/A   Clear
9:53 PM 61.0 °F 50.0 °F 67% 29.94 in 10.0 mi Calm Calm - N/A   Clear
10:53 PM 57.0 °F 50.0 °F 77% 29.94 in 10.0 mi Calm Calm - N/A   Clear
11:53 PM 55.0 °F 50.0 °F 83% 29.94 in 10.0 mi Calm Calm - N/A   Clear